Regional Weather Roundup
Issued by NWS

Home | Current Version | Previous Version | Text Only | Print | Product List | Glossary Off
Versions: 1 2 3 4 5 6 7 8 9 10 11 12 13 14 15 16 17 18 19 20 21 22 23 24 25 26 27 28

000
ASUS45 KBOU 231610
RWRCO

WEATHER ROUNDUP FOR COLORADO
NATIONAL WEATHER SERVICE DENVER/BOULDER CO
900 AM MST THU NOV 23 2017

NOTE: "FAIR" INDICATES FEW OR NO CLOUDS BELOW 12000 FEET WITH NO
SIGNIFICANT WEATHER AND/OR OBSTRUCTIONS TO VISIBILITY.

COZ001>005-013-030-031-231700-
...NORTHWEST COLORADO...

CITY           SKY/WX    TMP DP  RH WIND       PRES   REMARKS
CRAIG          FAIR      32  30  92 CALM      30.38S
HAYDEN         FAIR      39  34  82 SE10      30.39S
MEEKER         FAIR      39  34  82 N3        30.40S
RABBIT EARS PA FAIR     N/A N/A N/A SW5       30.47F
STEAMBOAT SPGS CLOUDY    31  31  99 CALM      30.39S VSB<1/4
WALDEN         FAIR      41  32  70 S8        30.39F
$$

COZ006>008-011-231700-
...WEST CENTRAL VALLEYS...

CITY           SKY/WX    TMP DP  RH WIND       PRES   REMARKS
GRAND JUNCTION FAIR      43  35  73 E6        30.39R
MONTROSE       FAIR      39  32  76 S3        30.43R
EAGLE          FOG       29  28  96 CALM      30.48F VSB 1/4
RIFLE          FAIR      34  32  92 SW5       30.43R WCI  30
DELTA          FAIR      39  31  72 CALM      30.42S
NUCLA          FAIR      37  30  75 CALM      30.44R
$$

COZ017>023-064>068-231700-
...SOUTHWEST COLORADO...

CITY           SKY/WX    TMP DP  RH WIND       PRES   REMARKS
DURANGO        FAIR      35  26  69 E5        30.40  WCI  31
CORTEZ         FAIR      36  27  69 E5        30.39S
PAGOSA SPRINGS FAIR      44  27  51 CALM      30.43S
TELLURIDE      FAIR      41  25  53 CALM      30.50S
WOLF CREEK PAS FAIR      37   1  22 NW8       30.64R
$$

COZ009-010-012-014-032>034-037-058>063-231700-
...CENTRAL COLORADO...

CITY           SKY/WX    TMP DP  RH WIND       PRES   REMARKS
ASPEN          FAIR      40  29  64 S3        30.43F
BUENA VISTA    FAIR      39  30  71 W8        30.42S
COPPER MTN     FAIR      32  28  86 MISG      30.55S
BERTHOUD PASS  PTSUNNY   23  12  63 MISG      30.50S
COTTONWOOD PAS FAIR      46  23  39 W5        30.47S
GUNNISON       FAIR      27  24  89 CALM      30.51S
KREMMLING      FOG       34  32  93 CALM      30.45S VSB<1/4
LEADVILLE      FAIR      33  25  72 NE7       30.47S WCI  27
MONARCH PASS   FAIR      30  28  93 SW23      30.66S WCI  17
SALIDA         FAIR      42  32  68 NW8       30.48R
SUNLIGHT       FAIR      34  27  75 SW5       30.57R WCI  30
WILKERSON PASS FAIR      37  14  38 NW9G20    30.51S
$$

COZ069>075-231700-
...SAN LUIS VALLEY/SANGRE DE CRISTO MOUNTAINS...

CITY           SKY/WX    TMP DP  RH WIND       PRES   REMARKS
ALAMOSA        FAIR      39  29  67 CALM      30.42S
DEL NORTE      FAIR      40  27  59 CALM      30.44S
LA VETA PASS   FAIR      34  28  80 MISG        N/A
SAGUACHE       FAIR      43  30  61 NW16      30.43S
$$

COZ035-036-038>040-231700-
...NORTHERN COLORADO FRONT RANGE...

CITY           SKY/WX    TMP DP  RH WIND       PRES   REMARKS
DENVER INTL AP PTSUNNY   55  32  41 SW13      30.19S
DMNS CITY PARK   N/A     54  31  40 SW8G16    30.19F
AURORA         PTSUNNY   55  31  40 SW13      30.21S
FRONT RANGE AP PTSUNNY   57  36  44 S9        30.20S
ERIE MUNI ARPT FAIR      60  34  37 SW3       30.22F
BOULDER MUN AP FAIR      59  32  36 CALM      30.18S
CENTENNIAL     PTSUNNY   57  33  40 SW5       30.22S
BROOMFIELD     MOSUNNY   61  30  31 VRB3      30.20F
FORT COLLINS   FAIR      47  38  71 N7        30.18F
LONGMONT       FAIR      51  41  68 CALM      30.19S
$$

COZ041-046-047-076>085-087-088-231700-
...PIKES PEAK/PALMER DIVIDE AND SOUTHERN FOOTHILLS...

CITY           SKY/WX    TMP DP  RH WIND       PRES   REMARKS
COLO. SPRINGS  PTSUNNY   57  33  40 CALM      30.27F
A. F. ACADEMY  FAIR      46  33  61 N6        30.27F
SCHRIEVER AFB  FAIR      56  29  35 W3        30.27F
CHEYENNE MTN   FAIR      53  30  41 NW3       30.23F
ELLICOTT         N/A    N/A N/A N/A CALM      30.25F
FALCON         FAIR      54  29  38 SW7       30.30S
FORT CARSON    FAIR      50  33  51 N6        30.24F
LIMON          FAIR      51  36  56 CALM      30.22F
MONUMENT HILL  FAIR      50  32  50 SW9       30.29F
CANON CITY     FAIR      55  34  44 NW3       30.25F
WALSENBURG     FAIR      57  32  38 W12G18    30.29S
TRINIDAD       FAIR      49  32  52 W14       30.28S
$$

COZ042>045-048>051-090-091-231700-
...NORTHEAST COLORADO...

CITY           SKY/WX    TMP DP  RH WIND       PRES   REMARKS
GREELEY ARPT   FAIR      43  35  73 SW3       30.18F
AKRON          FAIR      54  35  48 SW13      30.16S
BURLINGTON     FAIR      54  40  59 W8        30.17F
WRAY           NOT AVBL
YUMA           FAIR      50  37  62 W7        30.14S
STERLING       FAIR      43  36  75 S7        30.15S
HOLYOKE        FAIR      54  43  66 W12       30.13S
FORT MORGAN    FAIR      47  33  59 W8        30.17F
$$

COZ086-089-092>099-231700-
...SOUTHEAST COLORADO...

CITY           SKY/WX    TMP DP  RH WIND       PRES   REMARKS
PUEBLO         FAIR      44  34  67 SW5       30.22F
LA JUNTA       FAIR      50  34  54 W10       30.22S
LAMAR          FAIR      51  33  50 W9        30.19F
SPRINGFIELD      N/A     63  36  36 NW8       30.21F
$$




USA.gov is the U.S. government's official web portal to all federal, state and local government web resources and services.